Content
SEND FEEDBACK

Daily
Averages
Monthly
Summary
France

MARSEILLE, FRANCE


Home > Europe > France
Elevation: 35 meters     Latitude: 43 27N     Longitude: 005 14E

WEATHER
 
SELECT A DAY
Number of Records: 314,141;   Date Range: 7/1/96 - 8/31/14
 
SHARE

PRINT THIS DATA

[ ← Previous Day ]
WEATHER ALMANAC - 31 JANUARY, 2013
[ Next Day → ]
[ °F ]   °C
Weather ElementAverageHighLow
Temperature10.4 °C15 °C (1:30 pm)6 °C (2:00 am)
Dewpoint5.1 °C7.2 °C (7:00 pm)3 °C (6:30 am)
Humidity69.9 %93 % (1:30 am)41 % (1:00 pm)
Barometer1024.7 hPa1027.1 hPa (10:30 am)1023 hPa (12:30 am)
Wind Speed11.7 km/h33.3 km/h (6:00 am)
Weather ElementAverage
Visibility13 km
Wind DirectionSSW (196.4 °)

Weather ElementTotal
Precipitation---
Heating Degree Days7.8 (Base 18.3)
Growing Degree Days0.5 (Base 10)
Averaged from 52 records on 31 January, 2013
WEATHER CONDITIONS BREAKOUT
WIND DIRECTION BREAKOUT
WEATHER BY HOUR - 31 JANUARY, 2013
[ °F ]   °C
Local TimeTemperatureDewpointHumidityBarometerVisibilityWind DirectionWind SpeedGust SpeedPrecipitationEventsConditions
12:30 AM7 °C5 °C87 %1023 hPa10 kmESE (120°)9.3 km/h
1:00 AM6.7 °C5.6 °C88 %1024.4 hPa11.3 kmCalmClear
1:00 AM7 °C5 °C87 %1024 hPa10 kmCalm
1:30 AM8 °C7 °C93 %1024 hPa10 kmVariable3.7 km/h
2:00 AM6 °C5 °C93 %1024 hPa10 kmSSE (150°)7.4 km/h
2:30 AM7 °C5 °C87 %1024 hPa10 kmVariable5.6 km/h
3:00 AM7 °C6 °C93 %1024 hPa10 kmWSW (240°)11.1 km/h
3:30 AM8 °C7 °C93 %1024 hPa10 kmWest (270°)7.4 km/h
4:00 AM9 °C6 °C82 %1024 hPa10 kmVariable3.7 km/h
4:30 AM9 °C6 °C82 %1024 hPa10 kmWest (270°)11.1 km/h
5:00 AM8 °C5 °C81 %1024 hPa10 kmWNW (300°)18.5 km/h
5:30 AM11 °C4 °C62 %1025.1 hPa10 kmNW (320°)22.2 km/h
6:00 AM11 °C4 °C62 %1025.1 hPa10 kmNNW (330°)33.3 km/h
6:30 AM11 °C3 °C58 %1025.1 hPa10 kmNNW (330°)29.6 km/hPartly Cloudy
7:00 AM10.6 °C3.3 °C49 %1025.4 hPa59.5 kmNorth (350°)20.4 km/hClear
7:00 AM11 °C3 °C58 %1025.1 hPa10 kmNorth (350°)20.4 km/h
7:30 AM10 °C4 °C66 %1025.1 hPa10 kmNorth (350°)18.5 km/hPartly Cloudy
8:00 AM10 °C4 °C66 %1025.1 hPa10 kmNNW (340°)25.9 km/h
8:30 AM9 °C3 °C66 %1026.1 hPa10 kmWNW (300°)7.4 km/hPartly Cloudy
9:00 AM10 °C4 °C66 %1026.1 hPa10 kmWNW (290°)14.8 km/h
9:30 AM11 °C4 °C62 %1026.1 hPa10 kmVariable1.9 km/h
10:00 AM12 °C4 °C58 %1026.1 hPa10 kmSW (230°)7.4 km/h
10:30 AM12 °C5 °C62 %1027.1 hPa10 kmWSW (250°)11.1 km/h
11:00 AM12 °C5 °C62 %1027.1 hPa10 kmWSW (240°)9.3 km/h
11:30 AM12 °C5 °C62 %1027.1 hPa10 kmWSW (240°)7.4 km/h
12:00 PM13 °C6 °C63 %1027.1 hPa10 kmWest (280°)11.1 km/h
12:30 PM14 °C5 °C55 %1026.1 hPa10 kmWest (260°)9.3 km/h
1:00 PM13.9 °C4.4 °C41 %1026.1 hPa59.5 kmWest (260°)14.8 km/hClear
1:00 PM14 °C4 °C51 %1026.1 hPa10 kmWest (260°)14.8 km/h
1:30 PM15 °C5 °C51 %1025.1 hPa10 kmWest (280°)18.5 km/h
2:00 PM15 °C5 °C51 %1025.1 hPa10 kmWest (280°)24.1 km/h
2:30 PM15 °C5 °C51 %1025.1 hPa10 kmWest (280°)22.2 km/h
3:00 PM15 °C5 °C51 %1025.1 hPa10 kmWest (280°)22.2 km/h
3:30 PM13 °C4 °C54 %1025.1 hPa10 kmWest (270°)24.1 km/h
4:00 PM13 °C4 °C54 %1025.1 hPa10 kmWest (280°)16.7 km/h
4:30 PM12 °C5 °C62 %1024 hPa10 kmWest (270°)20.4 km/h
5:00 PM12 °C5 °C62 %1025.1 hPa10 kmWest (280°)13 km/h
5:30 PM13 °C5 °C58 %1024 hPa10 kmWest (270°)16.7 km/h
6:00 PM11 °C5 °C67 %1025.1 hPa10 kmWest (270°)13 km/h
6:30 PM11 °C7 °C76 %1025.1 hPa10 kmVariable5.6 km/h
7:00 PM11.1 °C7.2 °C68 %1025.1 hPa40.2 kmCalmClear
7:00 PM11 °C7 °C76 %1024 hPa10 kmCalm
7:15 PM10 °C6 °C76 %1024 hPaVariable3.7 km/hClear
7:30 PM10 °C7 °C82 %1024 hPaVariable1.9 km/hClear
8:00 PM10 °C7 °C82 %1024 hPaSouth (180°)9.3 km/hClear
8:30 PM10 °C7 °C82 %1024 hPaEast (100°)7.4 km/hClear
9:00 PM9 °C6 °C82 %1024 hPaVariable3.7 km/hClear
9:30 PM8 °C5 °C81 %1024 hPaVariable3.7 km/hClear
10:00 PM8 °C5 °C81 %1024 hPaESE (120°)5.6 km/hClear
10:30 PM7 °C5 °C87 %1024 hPaSSW (200°)5.6 km/hClear
11:00 PM8 °C6 °C87 %1024 hPaVariable5.6 km/hClear
11:30 PM7 °C4 °C81 %1023 hPaSE (130°)5.6 km/hClear
Hourly data recorded from LFML, located 0 kilometers away from Marseille, France







STORIES FROM OUR PARTNERS